sat.trackr.live / text

‹ back to catalog

FLOCK 4G-12

NORAD 62625 · 2025-009S

PAYLOAD ACTIVE UNKNOWN

§ Identity

Operator
Country
US
Launch date
2025-01-14
Launch site
AFWTR
Launch vehicle
Mass (kg)
RCS (m²)

Purposes: earth_obs

External: N2YO · Heavens-Above · Gunter

§ Orbital elements

Epoch: 2026-09-19T11:44:42.436320Z

Period
94.06 min
Inclination
97.3964°
Eccentricity
0.0003347
Mean motion
15.30890313 rev/d
Perigee alt
470.9 km
Apogee alt
475.4 km
Semi-major
6,851.3 km
B*
2.5346e-4
RAAN
343.9657°
Arg perigee
357.0665°
Mean anomaly
3.0555°
Rev number
9,332

§ Raw data

FLOCK 4G-121 62625U 25009S   26262.48938005  .00007490  00000+0  25346-3 0  99942 62625  97.3964 343.9657 0003347 357.0665   3.0555 15.30890313 93325

JSON: /api/v1/satellites/62625 · /tle

For live sub-satellite position, see the globe view (requires WebGL).

§ Visibility from observer

Set your observer location to see the next 7 days of passes ≥ 10°. The values pass through the URL so the page stays shareable.

No JS? Fill the form by hand. The geolocation button needs JavaScript.